User: anonymous   Login
Location: Makanda
(37.6176°N, 89.2090°W)
Time: 00:49:44
(UTC+00:00)
Language:

Cosmos 407 Rocket - Orbit

View from above orbital plane
View from above orbital plane
View from above satellite
View from above satellite

Ground track
Ground track

The orbit data is extracted from the following two-line orbital elements,

1  5175U 71035B   19318.78617295  .00000036  00000-0  20405-4 0  9995
2  5175  74.0505  28.7530 0029723  17.0452 343.1693 14.37957266541513
Epoch (UTC): 14 November 2019 18:52:05
Eccentricity: 0.0029723
inclination: 74.0505°
perigee height: 744 km
apogee height: 786 km
right ascension of ascending node: 28.7530°
argument of perigee: 17.0452°
revolutions per day: 14.37957266
mean anomaly at epoch: 343.1693°
orbit number at epoch: 54151

The dashed part of the orbit path shows where the satellite is in the earth's shadow,  

DLR